| time (UTC) | temp F | wind direction | speed MPH | gust MPH | rain 1hr in | rain 24hr in | rain mn in | humidity % | barometer mb |
| 20260507034534 | 49 | 325 | 3.0 | 8.0 | 0.08 | 0.81 | 0.81 | 93 | 1000.9 |
| 20260507033028 | 52 | 193 | 0.0 | 0.0 | 0.08 | 0.79 | 0.79 | 95 | 1001.2 |
| 20260507031523 | 52 | 193 | 0.0 | 0.0 | 0.07 | 0.76 | 0.76 | 95 | 1001.5 |
| 20260507030028 | 52 | 185 | 0.0 | 4.0 | 0.07 | 0.74 | 0.74 | 95 | 1001.8 |
| 20260507024520 | 52 | 207 | 0.0 | 8.0 | 0.07 | 0.73 | 0.72 | 94 | 1002.1 |
| 20260507023020 | 52 | 195 | 5.0 | 12.0 | 0.08 | 0.72 | 0.71 | 94 | 1002.3 |
| 20260507021520 | 52 | 167 | 4.0 | 13.0 | 0.08 | 0.70 | 0.69 | 94 | 1002.5 |
| 20260507020015 | 52 | 221 | 8.0 | 13.0 | 0.08 | 0.68 | 0.67 | 94 | 1002.8 |
| 20260507014513 | 52 | 192 | 5.0 | 12.0 | 0.09 | 0.69 | 0.65 | 94 | 1003.1 |
| 20260507013010 | 53 | 205 | 7.0 | 17.0 | 0.09 | 0.67 | 0.63 | 94 | 1003.4 |
| 20260507011509 | 53 | 176 | 5.0 | 14.0 | 0.09 | 0.65 | 0.61 | 94 | 1003.4 |
| 20260507010008 | 53 | 173 | 6.0 | 10.0 | 0.10 | 0.63 | 0.59 | 95 | 1003.6 |
| 20260507004508 | 52 | 166 | 5.0 | 11.0 | 0.09 | 0.63 | 0.56 | 95 | 1003.6 |
| 20260507003006 | 53 | 186 | 3.0 | 12.0 | 0.09 | 0.61 | 0.54 | 94 | 1003.7 |
| 20260507001510 | 53 | 160 | 6.0 | 15.0 | 0.09 | 0.57 | 0.51 | 94 | 1003.7 |
| 20260507000010 | 53 | 195 | 7.0 | 13.0 | 0.09 | 0.56 | 0.49 | 95 | 1003.9 |
| 20260506234504 | 52 | 200 | 1.0 | 9.0 | 0.09 | 0.54 | 0.47 | 94 | 1004.1 |
| 20260506233105 | 52 | 202 | 5.0 | 11.0 | 0.09 | 0.52 | 0.45 | 94 | 1004.1 |
| 20260506233001 | 52 | 208 | 3.0 | 8.0 | 0.10 | 0.52 | 0.45 | 94 | 1004.1 |
| 20260506231600 | 52 | 217 | 5.0 | 12.0 | 0.09 | 0.49 | 0.42 | 94 | 1004.2 |
| 20260506230100 | 53 | 173 | 6.0 | 14.0 | 0.09 | 0.47 | 0.40 | 94 | 1004.0 |
| 20260506224607 | 53 | 182 | 5.0 | 12.0 | 0.10 | 0.45 | 0.38 | 94 | 1004.0 |
| 20260506223058 | 53 | 175 | 6.0 | 13.0 | 0.10 | 0.43 | 0.36 | 94 | 1004.1 |
| 20260506221557 | 53 | 181 | 5.0 | 12.0 | 0.10 | 0.40 | 0.33 | 94 | 1004.1 |
| 20260506220059 | 53 | 188 | 7.0 | 17.0 | 0.10 | 0.38 | 0.31 | 94 | 1004.1 |
| 20260506214609 | 53 | 201 | 6.0 | 14.0 | 0.09 | 0.35 | 0.28 | 94 | 1004.1 |
| 20260506213055 | 53 | 182 | 7.0 | 15.0 | 0.09 | 0.33 | 0.26 | 94 | 1004.1 |
| 20260506211554 | 53 | 184 | 7.0 | 12.0 | 0.08 | 0.30 | 0.23 | 94 | 1004.4 |
| 20260506210054 | 53 | 139 | 5.0 | 13.0 | 0.07 | 0.28 | 0.21 | 94 | 1004.3 |
| 20260506204602 | 53 | 194 | 7.0 | 13.0 | 0.07 | 0.26 | 0.19 | 94 | 1004.5 |
| 20260506203052 | 54 | 149 | 4.0 | 9.0 | 0.06 | 0.24 | 0.17 | 94 | 1004.5 |
| 20260506201551 | 54 | 166 | 1.0 | 8.0 | 0.05 | 0.22 | 0.15 | 94 | 1004.4 |
| 20260506200048 | 54 | 182 | 5.0 | 10.0 | 0.06 | 0.21 | 0.14 | 93 | 1004.8 |
| 20260506194559 | 54 | 173 | 0.0 | 8.0 | 0.04 | 0.19 | 0.12 | 93 | 1004.8 |
| 20260506193049 | 54 | 168 | 4.0 | 6.0 | 0.04 | 0.18 | 0.11 | 93 | 1005.3 |
| 20260506191545 | 54 | 181 | 4.0 | 10.0 | 0.03 | 0.17 | 0.10 | 93 | 1005.2 |
| 20260506190045 | 54 | 198 | 5.0 | 12.0 | 0.02 | 0.15 | 0.08 | 93 | 1005.0 |
| 20260506184544 | 54 | 163 | 0.0 | 6.0 | 0.04 | 0.15 | 0.08 | 93 | 1005.0 |
| 20260506183046 | 53 | 133 | 0.0 | 5.0 | 0.04 | 0.14 | 0.07 | 93 | 1005.2 |
| 20260506181547 | 53 | 136 | 0.0 | 3.0 | 0.05 | 0.14 | 0.07 | 93 | 1005.6 |
| 20260506180049 | 53 | 178 | 0.0 | 0.0 | 0.04 | 0.13 | 0.06 | 92 | 1006.1 |
| 20260506174542 | 53 | 164 | 1.0 | 4.0 | 0.03 | 0.11 | 0.04 | 92 | 1006.4 |
| 20260506173042 | 53 | 165 | 0.0 | 4.0 | 0.02 | 0.10 | 0.03 | 91 | 1006.4 |
| 20260506171552 | 53 | 147 | 0.0 | 0.0 | 0.01 | 0.09 | 0.02 | 89 | 1006.6 |
| 20260506170043 | 54 | 141 | 0.0 | 3.0 | 0.01 | 0.09 | 0.02 | 88 | 1006.9 |
| 20260506164541 | 53 | 169 | 0.0 | 2.0 | 0.00 | 0.08 | 0.01 | 87 | 1007.1 |
| 20260506163044 | 53 | 175 | 0.0 | 10.0 | 0.00 | 0.08 | 0.01 | 87 | 1007.3 |
| 20260506161540 | 53 | 98 | 0.0 | 1.0 | 0.00 | 0.08 | 0.01 | 89 | 1007.0 |
| 20260506160041 | 52 | 113 | 2.0 | 8.0 | 0.00 | 0.08 | 0.01 | 89 | 1007.0 |
| 20260506154542 | 52 | 113 | 1.0 | 11.0 | 0.00 | 0.08 | 0.01 | 89 | 1006.8 |
| 20260506153038 | 52 | 103 | 0.0 | 9.0 | 0.00 | 0.08 | 0.01 | 89 | 1007.3 |
| 20260506151538 | 52 | 82 | 0.0 | 1.0 | 0.00 | 0.08 | 0.01 | 89 | 1007.7 |
| 20260506150037 | 52 | 161 | 2.0 | 7.0 | 0.00 | 0.08 | 0.01 | 89 | 1008.1 |
| 20260506144541 | 52 | 115 | 2.0 | 5.0 | 0.00 | 0.08 | 0.01 | 88 | 1008.1 |
| 20260506143037 | 52 | 118 | 0.0 | 0.0 | 0.00 | 0.08 | 0.01 | 88 | 1008.4 |
| 20260506141536 | 52 | 109 | 0.0 | 0.0 | 0.00 | 0.08 | 0.01 | 88 | 1008.6 |
| 20260506140048 | 52 | 128 | 0.0 | 0.0 | 0.00 | 0.08 | 0.01 | 88 | 1008.9 |
| 20260506134538 | 52 | 132 | 0.0 | 0.0 | 0.00 | 0.08 | 0.01 | 88 | 1008.7 |
| 20260506133044 | 52 | 168 | 0.0 | 0.0 | 0.00 | 0.08 | 0.01 | 87 | 1008.6 |
| 20260506131536 | 52 | 157 | 0.0 | 0.0 | 0.00 | 0.08 | 0.01 | 88 | 1008.3 |
| 20260506130037 | 51 | 148 | 0.0 | 1.0 | 0.00 | 0.08 | 0.01 | 87 | 1008.3 |
| 20260506124533 | 51 | 127 | 3.0 | 7.0 | 0.00 | 0.08 | 0.01 | 87 | 1008.4 |
| 20260506123033 | 51 | 170 | 2.0 | 6.0 | 0.00 | 0.08 | 0.01 | 87 | 1008.1 |
| 20260506121532 | 50 | 153 | 0.0 | 0.0 | 0.00 | 0.08 | 0.01 | 86 | 1008.2 |
| 20260506120038 | 50 | 134 | 0.0 | 0.0 | 0.00 | 0.08 | 0.01 | 87 | 1008.6 |
| 20260506114531 | 50 | 360 | 0.0 | 0.0 | 0.00 | 0.08 | 0.01 | 86 | 1008.6 |
| 20260506113031 | 49 | 360 | 0.0 | 0.0 | 0.00 | 0.08 | 0.01 | 87 | 1008.4 |
| 20260506111530 | 49 | 360 | 0.0 | 0.0 | 0.00 | 0.08 | 0.01 | 87 | 1008.6 |
| 20260506110034 | 49 | 360 | 0.0 | 7.0 | 0.00 | 0.08 | 0.01 | 86 | 1008.8 |
| 20260506104530 | 49 | 323 | 6.0 | 9.0 | 0.00 | 0.08 | 0.01 | 88 | 1008.7 |
| 20260506103032 | 49 | 360 | 3.0 | 7.0 | 0.01 | 0.08 | 0.01 | 88 | 1008.5 |
| 20260506101537 | 49 | 12 | 0.0 | 6.0 | 0.01 | 0.08 | 0.01 | 88 | 1008.4 |
| 20260506100031 | 50 | 360 | 4.0 | 10.0 | 0.01 | 0.08 | 0.01 | 86 | 1008.1 |
| 20260506094522 | 51 | 360 | 4.0 | 12.0 | 0.01 | 0.08 | 0.01 | 89 | 1008.9 |
| 20260506093019 | 51 | 360 | 0.0 | 0.0 | 0.00 | 0.07 | 0.00 | 93 | 1008.3 |
| 20260506091518 | 51 | 237 | 0.0 | 0.0 | 0.00 | 0.07 | 0.00 | 93 | 1008.4 |
| 20260506090014 | 51 | 199 | 0.0 | 0.0 | 0.00 | 0.07 | 0.00 | 92 | 1007.8 |
| 20260506084513 | 51 | 215 | 0.0 | 0.0 | 0.00 | 0.07 | 0.00 | 92 | 1007.5 |
| 20260506083012 | 51 | 213 | 0.0 | 0.0 | 0.00 | 0.07 | 0.00 | 91 | 1007.4 |
| 20260506081510 | 51 | 213 | 0.0 | 0.0 | 0.00 | 0.07 | 0.00 | 90 | 1007.7 |
| 20260506073003 | 52 | 221 | 5.0 | 8.0 | 0.00 | 0.07 | 0.00 | 88 | 1006.8 |
| 20260506071600 | 52 | 194 | 3.0 | 11.0 | 0.00 | 0.07 | 0.00 | 88 | 1006.6 |
| 20260506061555 | 53 | 192 | 4.0 | 8.0 | 0.00 | 0.07 | 0.00 | 89 | 1005.6 |
| 20260506044538 | 55 | 198 | 5.0 | 11.0 | 0.00 | 0.07 | 0.00 | 88 | 1005.3 |
| 20260506043036 | 55 | 205 | 5.0 | 11.0 | 0.00 | 0.07 | 0.00 | 90 | 1005.6 |
| 20260506041533 | 55 | 201 | 5.0 | 13.0 | 0.00 | 0.07 | 0.00 | 89 | 1005.3 |
| 20260506040037 | 55 | 225 | 2.0 | 7.0 | 0.00 | 0.07 | 0.00 | 90 | 1004.9 |